| time (UTC) | temp C | wind direction | speed KPH | gust KPH | rain 1hr cm | rain 24hr cm | rain mn cm | humidity % | barometer mb |
| 20260505011509 | 16 | 348 | 20.9 | 38.6 | 0.00 | 0.00 | 0.00 | 38 | 1007.3 |
| 20260505011010 | 17 | 351 | 20.9 | 38.6 | 0.00 | 0.00 | 0.00 | 38 | 1007.4 |
| 20260505010510 | 17 | 329 | 19.3 | 40.2 | 0.00 | 0.00 | 0.00 | 37 | 1007.1 |
| 20260505010009 | 17 | 348 | 27.4 | 40.2 | 0.00 | 0.00 | 0.00 | 36 | 1007.3 |
| 20260505005009 | 18 | 323 | 16.1 | 35.4 | 0.00 | 0.00 | 0.00 | 35 | 1007.0 |
| 20260505004509 | 18 | 331 | 17.7 | 38.6 | 0.00 | 0.00 | 0.00 | 34 | 1007.0 |
| 20260505004009 | 18 | 5 | 17.7 | 41.8 | 0.00 | 0.00 | 0.00 | 34 | 1006.7 |
| 20260505002509 | 19 | 0 | 20.9 | 35.4 | 0.00 | 0.00 | 0.00 | 33 | 1006.3 |
| 20260505002009 | 20 | 351 | 16.1 | 35.4 | 0.00 | 0.00 | 0.00 | 32 | 1006.2 |
| 20260505001509 | 20 | 34 | 19.3 | 37.0 | 0.00 | 0.00 | 0.00 | 32 | 1006.2 |
| 20260505001009 | 20 | 317 | 22.5 | 37.0 | 0.00 | 0.00 | 0.00 | 32 | 1006.0 |
| 20260505000509 | 20 | 355 | 16.1 | 35.4 | 0.00 | 0.00 | 0.00 | 32 | 1005.9 |
| 20260505000008 | 21 | 355 | 17.7 | 35.4 | 0.00 | 0.00 | 0.00 | 33 | 1006.0 |
| 20260504235509 | 21 | 0 | 20.9 | 37.0 | 0.00 | 0.00 | 0.00 | 32 | 1006.0 |
| 20260504235009 | 21 | 0 | 16.1 | 37.0 | 0.00 | 0.00 | 0.00 | 32 | 1006.0 |
| 20260504234509 | 21 | 51 | 14.5 | 33.8 | 0.00 | 0.00 | 0.00 | 31 | 1005.8 |
| 20260504234009 | 21 | 13 | 17.7 | 32.2 | 0.00 | 0.00 | 0.00 | 31 | 1005.8 |
| 20260504233509 | 21 | 351 | 16.1 | 35.4 | 0.00 | 0.00 | 0.00 | 30 | 1005.8 |
| 20260504233009 | 22 | 0 | 16.1 | 35.4 | 0.00 | 0.00 | 0.00 | 30 | 1005.6 |
| 20260504232508 | 22 | 344 | 16.1 | 35.4 | 0.00 | 0.00 | 0.00 | 30 | 1005.4 |
| 20260504231510 | 22 | 344 | 19.3 | 45.1 | 0.00 | 0.00 | 0.00 | 30 | 1005.2 |
| 20260504231010 | 22 | 297 | 22.5 | 41.8 | 0.00 | 0.00 | 0.00 | 29 | 1005.2 |
| 20260504230509 | 22 | 353 | 24.1 | 41.8 | 0.00 | 0.00 | 0.00 | 29 | 1004.9 |
| 20260504230009 | 23 | 311 | 22.5 | 38.6 | 0.00 | 0.00 | 0.00 | 28 | 1004.8 |
| 20260504225009 | 23 | 305 | 22.5 | 37.0 | 0.00 | 0.00 | 0.00 | 28 | 1004.5 |
| 20260504224510 | 23 | 327 | 16.1 | 37.0 | 0.00 | 0.00 | 0.00 | 29 | 1004.5 |
| 20260504223010 | 24 | 350 | 17.7 | 37.0 | 0.00 | 0.00 | 0.00 | 29 | 1004.1 |
| 20260504222509 | 24 | 345 | 11.3 | 37.0 | 0.00 | 0.00 | 0.00 | 29 | 1003.9 |
| 20260504222009 | 24 | 344 | 22.5 | 37.0 | 0.00 | 0.00 | 0.00 | 28 | 1004.0 |
| 20260504221510 | 24 | 343 | 16.1 | 37.0 | 0.00 | 0.00 | 0.00 | 28 | 1003.7 |
| 20260504221009 | 24 | 15 | 20.9 | 37.0 | 0.00 | 0.00 | 0.00 | 28 | 1003.7 |
| 20260504220510 | 25 | 336 | 14.5 | 40.2 | 0.00 | 0.00 | 0.00 | 28 | 1003.5 |
| 20260504220010 | 25 | 356 | 20.9 | 40.2 | 0.00 | 0.00 | 0.00 | 27 | 1003.5 |
| 20260504215510 | 25 | 328 | 11.3 | 32.2 | 0.00 | 0.00 | 0.00 | 29 | 1003.4 |
| 20260504214510 | 25 | 359 | 19.3 | 38.6 | 0.00 | 0.00 | 0.00 | 27 | 1003.4 |
| 20260504214010 | 26 | 336 | 8.0 | 24.1 | 0.00 | 0.00 | 0.00 | 28 | 1003.3 |
| 20260504213010 | 26 | 342 | 11.3 | 24.1 | 0.00 | 0.00 | 0.00 | 29 | 1003.3 |
| 20260504212510 | 26 | 294 | 11.3 | 24.1 | 0.00 | 0.00 | 0.00 | 28 | 1003.2 |
| 20260504212010 | 26 | 355 | 11.3 | 20.9 | 0.00 | 0.00 | 0.00 | 29 | 1003.1 |
| 20260504211510 | 26 | 345 | 11.3 | 20.9 | 0.00 | 0.00 | 0.00 | 29 | 1003.1 |
| 20260504211010 | 26 | 308 | 4.8 | 19.3 | 0.00 | 0.00 | 0.00 | 30 | 1003.0 |
| 20260504210510 | 26 | 345 | 4.8 | 19.3 | 0.00 | 0.00 | 0.00 | 31 | 1003.1 |
| 20260504205510 | 26 | 298 | 6.4 | 19.3 | 0.00 | 0.00 | 0.00 | 31 | 1002.8 |
| 20260504205010 | 26 | 341 | 6.4 | 24.1 | 0.00 | 0.00 | 0.00 | 31 | 1002.8 |
| 20260504204510 | 26 | 340 | 9.7 | 29.0 | 0.00 | 0.00 | 0.00 | 30 | 1002.8 |
| 20260504204010 | 26 | 323 | 16.1 | 29.0 | 0.00 | 0.00 | 0.00 | 30 | 1002.7 |
| 20260504203510 | 26 | 275 | 8.0 | 22.5 | 0.00 | 0.00 | 0.00 | 32 | 1002.7 |
| 20260504203010 | 26 | 24 | 12.9 | 24.1 | 0.00 | 0.00 | 0.00 | 31 | 1002.7 |
| 20260504202509 | 26 | 324 | 4.8 | 32.2 | 0.00 | 0.00 | 0.00 | 33 | 1002.7 |
| 20260504202010 | 26 | 31 | 14.5 | 32.2 | 0.00 | 0.00 | 0.00 | 32 | 1002.7 |
| 20260504201510 | 26 | 342 | 8.0 | 32.2 | 0.00 | 0.00 | 0.00 | 34 | 1002.7 |
| 20260504200509 | 27 | 68 | 12.9 | 25.7 | 0.00 | 0.00 | 0.00 | 34 | 1002.7 |
| 20260504200008 | 27 | 0 | 4.8 | 25.7 | 0.00 | 0.00 | 0.00 | 35 | 1002.6 |
| 20260504195509 | 27 | 267 | 3.2 | 27.4 | 0.00 | 0.00 | 0.00 | 35 | 1002.5 |
| 20260504195009 | 27 | 32 | 14.5 | 27.4 | 0.00 | 0.00 | 0.00 | 33 | 1002.4 |
| 20260504194009 | 27 | 317 | 4.8 | 22.5 | 0.00 | 0.00 | 0.00 | 34 | 1002.2 |
| 20260504193509 | 27 | 311 | 4.8 | 27.4 | 0.00 | 0.00 | 0.00 | 33 | 1002.2 |
| 20260504193009 | 27 | 5 | 9.7 | 27.4 | 0.00 | 0.00 | 0.00 | 33 | 1002.2 |
| 20260504192508 | 27 | 283 | 3.2 | 19.3 | 0.00 | 0.00 | 0.00 | 35 | 1002.2 |
| 20260504192010 | 27 | 300 | 6.4 | 19.3 | 0.00 | 0.00 | 0.00 | 34 | 1002.1 |
| 20260504191510 | 27 | 309 | 8.0 | 19.3 | 0.00 | 0.00 | 0.00 | 32 | 1002.1 |
| 20260504191009 | 27 | 352 | 9.7 | 19.3 | 0.00 | 0.00 | 0.00 | 31 | 1002.1 |
| 20260504190509 | 27 | 276 | 4.8 | 22.5 | 0.00 | 0.00 | 0.00 | 34 | 1002.1 |
| 20260504190012 | 27 | 272 | 6.4 | 22.5 | 0.00 | 0.00 | 0.00 | 32 | 1002.0 |
| 20260504185509 | 27 | 291 | 6.4 | 20.9 | 0.00 | 0.00 | 0.00 | 33 | 1001.9 |
| 20260504185009 | 27 | 313 | 6.4 | 27.4 | 0.00 | 0.00 | 0.00 | 30 | 1001.8 |
| 20260504184009 | 27 | 342 | 8.0 | 19.3 | 0.00 | 0.00 | 0.00 | 31 | 1001.7 |
| 20260504183509 | 27 | 280 | 6.4 | 14.5 | 0.00 | 0.00 | 0.00 | 31 | 1001.6 |
| 20260504183010 | 27 | 285 | 3.2 | 25.7 | 0.00 | 0.00 | 0.00 | 29 | 1001.8 |
| 20260504182510 | 27 | 251 | 9.7 | 25.7 | 0.00 | 0.00 | 0.00 | 31 | 1001.6 |
| 20260504182009 | 27 | 255 | 4.8 | 19.3 | 0.00 | 0.00 | 0.00 | 31 | 1001.7 |
| 20260504181510 | 27 | 245 | 4.8 | 19.3 | 0.00 | 0.00 | 0.00 | 31 | 1001.8 |
| 20260504181010 | 27 | 347 | 8.0 | 20.9 | 0.00 | 0.00 | 0.00 | 30 | 1001.8 |
| 20260504180510 | 27 | 337 | 8.0 | 20.9 | 0.00 | 0.00 | 0.00 | 30 | 1001.8 |
| 20260504180010 | 27 | 266 | 4.8 | 24.1 | 0.00 | 0.00 | 0.00 | 30 | 1001.9 |
| 20260504175010 | 27 | 351 | 9.7 | 24.1 | 0.00 | 0.00 | 0.00 | 32 | 1002.0 |
| 20260504174510 | 27 | 279 | 8.0 | 19.3 | 0.00 | 0.00 | 0.00 | 33 | 1002.0 |
| 20260504174010 | 27 | 280 | 4.8 | 19.3 | 0.00 | 0.00 | 0.00 | 35 | 1002.0 |
| 20260504173510 | 27 | 285 | 3.2 | 19.3 | 0.00 | 0.00 | 0.00 | 33 | 1002.0 |
| 20260504173011 | 26 | 277 | 4.8 | 22.5 | 0.00 | 0.00 | 0.00 | 35 | 1002.0 |
| 20260504172010 | 27 | 257 | 4.8 | 16.1 | 0.00 | 0.00 | 0.00 | 33 | 1002.1 |
| 20260504171510 | 26 | 291 | 4.8 | 19.3 | 0.00 | 0.00 | 0.00 | 34 | 1002.1 |
| 20260504170510 | 26 | 268 | 3.2 | 9.7 | 0.00 | 0.00 | 0.00 | 40 | 1002.3 |
| 20260504151009 | 19 | 255 | 3.2 | 11.3 | 0.00 | 0.00 | 0.00 | 50 | 1002.6 |
| 20260504150509 | 18 | 251 | 1.6 | 4.8 | 0.00 | 0.00 | 0.00 | 51 | 1002.7 |
| 20260504140509 | 16 | 253 | 4.8 | 8.0 | 0.00 | 0.00 | 0.00 | 58 | 1003.5 |
| 20260504130510 | 12 | 218 | 1.6 | 3.2 | 0.00 | 0.00 | 0.00 | 85 | 1003.5 |
| 20260504100509 | 9 | 243 | 0.0 | 0.0 | 0.00 | 0.00 | 0.00 | 78 | 1003.3 |
| 20260504081510 | 10 | 243 | 0.0 | 0.0 | 0.00 | 0.00 | 0.00 | 76 | 1004.5 |
| 20260504081010 | 10 | 243 | 0.0 | 0.0 | 0.00 | 0.00 | 0.00 | 76 | 1004.6 |
| 20260504080510 | 10 | 242 | 0.0 | 0.0 | 0.00 | 0.00 | 0.00 | 76 | 1004.7 |
| 20260504045512 | 14 | 243 | 0.0 | 0.0 | 0.00 | 0.00 | 0.00 | 59 | 1007.1 |
| 20260504045010 | 14 | 243 | 0.0 | 0.0 | 0.00 | 0.00 | 0.00 | 60 | 1007.1 |
| 20260504044510 | 14 | 243 | 0.0 | 0.0 | 0.00 | 0.00 | 0.00 | 59 | 1007.2 |
| 20260504043509 | 15 | 243 | 0.0 | 0.0 | 0.00 | 0.00 | 0.00 | 58 | 1007.3 |
| 20260504043010 | 15 | 243 | 0.0 | 0.0 | 0.00 | 0.00 | 0.00 | 57 | 1007.3 |
| 20260504042510 | 15 | 242 | 0.0 | 0.0 | 0.00 | 0.00 | 0.00 | 57 | 1007.3 |
| 20260504042010 | 15 | 244 | 0.0 | 0.0 | 0.00 | 0.00 | 0.00 | 57 | 1007.4 |
| 20260504041509 | 15 | 244 | 0.0 | 0.0 | 0.00 | 0.00 | 0.00 | 57 | 1007.5 |
| 20260504041011 | 15 | 243 | 0.0 | 0.0 | 0.00 | 0.00 | 0.00 | 57 | 1007.5 |
| 20260504040009 | 16 | 244 | 0.0 | 0.0 | 0.00 | 0.00 | 0.00 | 55 | 1007.8 |
| 20260504035509 | 16 | 243 | 0.0 | 0.0 | 0.00 | 0.00 | 0.00 | 55 | 1007.8 |
| 20260504035009 | 16 | 243 | 0.0 | 0.0 | 0.00 | 0.00 | 0.00 | 54 | 1007.8 |
| 20260504034508 | 16 | 244 | 0.0 | 0.0 | 0.00 | 0.00 | 0.00 | 53 | 1007.9 |
| 20260504033509 | 16 | 244 | 0.0 | 0.0 | 0.00 | 0.00 | 0.00 | 53 | 1008.1 |
| 20260504033009 | 17 | 244 | 0.0 | 0.0 | 0.00 | 0.00 | 0.00 | 52 | 1008.1 |
| 20260504032508 | 17 | 244 | 0.0 | 0.0 | 0.00 | 0.00 | 0.00 | 52 | 1008.2 |
| 20260504031508 | 17 | 244 | 0.0 | 0.0 | 0.00 | 0.00 | 0.00 | 51 | 1008.2 |
| 20260504031009 | 17 | 244 | 0.0 | 0.0 | 0.00 | 0.00 | 0.00 | 51 | 1008.1 |
| 20260504030010 | 17 | 244 | 0.0 | 0.0 | 0.00 | 0.00 | 0.00 | 50 | 1008.3 |
| 20260504025009 | 17 | 244 | 0.0 | 0.0 | 0.00 | 0.00 | 0.00 | 49 | 1008.3 |
| 20260504024009 | 18 | 244 | 0.0 | 0.0 | 0.00 | 0.00 | 0.00 | 48 | 1008.3 |
| 20260504023509 | 18 | 244 | 0.0 | 0.0 | 0.00 | 0.00 | 0.00 | 46 | 1008.3 |
| 20260504023013 | 18 | 244 | 0.0 | 0.0 | 0.00 | 0.00 | 0.00 | 46 | 1008.3 |
| 20260504022509 | 18 | 244 | 0.0 | 0.0 | 0.00 | 0.00 | 0.00 | 45 | 1008.2 |
| 20260504022009 | 18 | 244 | 0.0 | 0.0 | 0.00 | 0.00 | 0.00 | 45 | 1008.3 |
| 20260504021009 | 19 | 244 | 0.0 | 0.0 | 0.00 | 0.00 | 0.00 | 43 | 1008.4 |
| 20260504020509 | 19 | 244 | 0.0 | 0.0 | 0.00 | 0.00 | 0.00 | 42 | 1008.4 |
| 20260504020009 | 20 | 244 | 0.0 | 0.0 | 0.00 | 0.00 | 0.00 | 42 | 1008.5 |
| 20260504015509 | 20 | 244 | 0.0 | 0.0 | 0.00 | 0.00 | 0.00 | 41 | 1008.6 |
| 20260504015010 | 20 | 244 | 0.0 | 0.0 | 0.00 | 0.00 | 0.00 | 40 | 1008.6 |
| 20260504014510 | 20 | 244 | 0.0 | 0.0 | 0.00 | 0.00 | 0.00 | 39 | 1008.6 |
| 20260504014009 | 21 | 244 | 0.0 | 0.0 | 0.00 | 0.00 | 0.00 | 38 | 1008.4 |
| 20260504013510 | 21 | 244 | 0.0 | 0.0 | 0.00 | 0.00 | 0.00 | 37 | 1008.3 |
| 20260504013010 | 21 | 244 | 0.0 | 0.0 | 0.00 | 0.00 | 0.00 | 37 | 1008.3 |
| 20260504012010 | 22 | 244 | 0.0 | 0.0 | 0.00 | 0.00 | 0.00 | 35 | 1008.3 |